EW4711 Weather Reports


time (UTC)temp
F
wind
direction
speed
knots
gust
knots
rain 1hr
in
rain 24hr
in
rain mn
in
humidity
%
barometer
mb
20260505041604 62 260 5.2 13.9 0.00 0.00 0.00 72 1000.7
20260505041104 62 265 5.2 8.7 0.00 0.00 0.00 71 1000.7
20260505040606 61 249 5.2 10.4 0.00 0.00 0.00 71 1000.7
20260505035603 61 246 4.3 10.4 0.00 0.00 0.00 71 1000.6
20260505035104 61 246 4.3 8.7 0.00 0.00 0.00 71 1000.5
20260505034604 61 238 4.3 10.4 0.00 0.00 0.00 71 1000.5
20260505034104 61 237 3.5 7.8 0.00 0.00 0.00 71 1000.5
20260505033604 61 250 1.7 5.2 0.00 0.00 0.00 71 1000.6
20260505033104 61 239 4.3 8.7 0.00 0.00 0.00 70 1000.7
20260505032604 61 243 3.5 7.8 0.00 0.00 0.00 70 1000.9
20260505032104 61 255 2.6 7.8 0.00 0.00 0.00 70 1000.9
20260505031604 61 251 2.6 7.8 0.00 0.00 0.00 69 1001.0
20260505030603 61 243 2.6 11.3 0.00 0.00 0.00 68 1001.2
20260505025603 61 249 4.3 11.3 0.00 0.00 0.00 66 1001.3
20260505025104 61 247 3.5 10.4 0.00 0.00 0.00 65 1001.3
20260505024604 61 259 3.5 11.3 0.00 0.00 0.00 64 1001.4
20260505024104 62 251 5.2 10.4 0.00 0.00 0.00 63 1001.4
20260505023603 61 252 4.3 10.4 0.00 0.00 0.00 63 1001.3
20260505023103 61 256 4.3 7.8 0.00 0.00 0.00 63 1001.2
20260505022604 61 255 3.5 12.2 0.00 0.00 0.00 63 1001.4
20260505022104 60 264 4.3 10.4 0.00 0.00 0.00 61 1001.4
20260505021604 60 247 3.5 7.8 0.00 0.00 0.00 60 1001.5
20260505021104 61 244 2.6 6.1 0.00 0.00 0.00 59 1001.3
20260505020604 61 238 2.6 5.2 0.00 0.00 0.00 59 1001.3
20260505020104 61 247 1.7 4.3 0.00 0.00 0.00 58 1001.2
20260505015604 61 240 1.7 2.6 0.00 0.00 0.00 58 1001.3
20260505015104 61 250 1.7 2.6 0.00 0.00 0.00 56 1001.2
20260505014604 62 233 1.7 6.1 0.00 0.00 0.00 56 1001.2
20260505013606 62 244 2.6 5.2 0.00 0.00 0.00 54 1001.3
20260505013103 62 242 1.7 2.6 0.00 0.00 0.00 54 1001.2
20260505012603 62 246 1.7 4.3 0.00 0.00 0.00 54 1001.3
20260505012105 63 250 2.6 6.1 0.00 0.00 0.00 53 1001.2
20260505011604 63 246 1.7 2.6 0.00 0.00 0.00 53 1001.2
20260505011105 63 246 1.7 2.6 0.00 0.00 0.00 52 1001.2
20260505010603 63 242 1.7 2.6 0.00 0.00 0.00 52 1001.2
20260505010104 63 260 2.6 10.4 0.00 0.00 0.00 51 1001.2
20260505004608 64 257 1.7 4.3 0.00 0.00 0.00 52 1001.1
20260505004104 64 244 1.7 6.1 0.00 0.00 0.00 51 1001.1
20260505003104 65 246 1.7 7.0 0.00 0.00 0.00 50 1001.1
20260505002104 66 284 1.7 2.6 0.00 0.00 0.00 49 1001.1
20260505001604 66 264 1.7 2.6 0.00 0.00 0.00 49 1001.1
20260505001105 66 266 2.6 7.8 0.00 0.00 0.00 48 1001.2
20260505000605 67 281 2.6 5.2 0.00 0.00 0.00 49 1001.2
20260505000105 67 290 1.7 5.2 0.00 0.00 0.00 49 1001.2
20260504235604 67 298 1.7 4.3 0.00 0.00 0.00 50 1001.2
20260504235104 68 281 2.6 10.4 0.00 0.00 0.00 49 1001.2
20260504234604 68 275 2.6 6.1 0.00 0.00 0.00 49 1001.2
20260504234104 68 275 2.6 7.8 0.00 0.00 0.00 48 1001.1
20260504233604 69 269 2.6 10.4 0.00 0.00 0.00 48 1001.2
20260504233104 69 290 4.3 12.2 0.00 0.00 0.00 48 1001.2
20260504232602 69 291 4.3 7.8 0.00 0.00 0.00 48 1001.2
20260504232103 69 280 4.3 13.9 0.00 0.00 0.00 48 1001.2
20260504231605 69 278 4.3 8.7 0.00 0.01 0.00 48 1001.3
20260504231103 69 264 4.3 7.0 0.00 0.01 0.00 48 1001.3
20260504230603 69 279 2.6 10.4 0.00 0.01 0.00 49 1001.4
20260504230105 69 266 4.3 13.9 0.00 0.01 0.00 47 1001.4
20260504225616 69 275 5.2 13.9 0.00 0.01 0.00 47 1001.4
20260504225102 69 267 4.3 11.3 0.00 0.01 0.00 47 1001.5
20260504224602 70 296 4.3 14.8 0.00 0.01 0.00 46 1001.5
20260504224102 70 285 4.3 8.7 0.00 0.01 0.00 46 1001.5
20260504223602 70 290 4.3 14.8 0.00 0.01 0.00 45 1001.5
20260504223102 70 292 6.1 14.8 0.00 0.02 0.00 44 1001.6
20260504222602 70 294 6.1 12.2 0.00 0.02 0.00 42 1001.6
20260504222102 71 265 7.0 17.4 0.00 0.02 0.00 42 1001.5
20260504221602 71 288 7.8 13.0 0.00 0.02 0.00 41 1001.6
20260504221102 71 293 6.1 14.8 0.00 0.02 0.00 41 1001.5
20260504220602 71 275 6.1 12.2 0.00 0.02 0.00 41 1001.5
20260504215603 71 286 7.0 14.8 0.00 0.02 0.00 41 1001.6
20260504215103 71 285 10.4 22.6 0.00 0.02 0.00 40 1001.6
20260504214603 71 269 7.0 12.2 0.00 0.02 0.00 40 1001.6
20260504214102 72 299 8.7 19.1 0.00 0.02 0.00 41 1001.7
20260504213602 72 287 7.0 14.8 0.00 0.02 0.00 41 1001.6
20260504213103 72 259 8.7 17.4 0.00 0.02 0.00 41 1001.5
20260504212602 72 283 4.3 13.0 0.00 0.02 0.00 43 1001.5
20260504212103 72 276 5.2 15.6 0.00 0.02 0.00 45 1001.4
20260504211602 72 284 11.3 18.2 0.00 0.02 0.00 44 1001.5
20260504211103 72 289 6.1 13.9 0.00 0.02 0.00 44 1001.5
20260504210602 72 281 7.0 14.8 0.00 0.02 0.00 43 1001.5
20260504205603 72 286 7.0 13.0 0.00 0.02 0.00 44 1001.5
20260504205103 72 256 4.3 17.4 0.00 0.02 0.00 45 1001.7
20260504204602 71 268 5.2 15.6 0.00 0.02 0.00 45 1001.7
20260504204102 71 272 8.7 22.6 0.00 0.02 0.00 46 1001.7
20260504203603 72 270 6.1 19.1 0.00 0.02 0.00 44 1001.8
20260504203103 72 280 7.8 13.9 0.00 0.02 0.00 45 1001.9
20260504202602 71 294 6.1 19.1 0.00 0.02 0.00 46 1001.8
20260504202103 72 262 6.1 11.3 0.00 0.02 0.00 44 1001.9
20260504201602 72 290 7.8 17.4 0.00 0.02 0.00 46 1001.9
20260504201103 72 282 7.0 15.6 0.00 0.02 0.00 44 1002.0
20260504200602 72 257 4.3 11.3 0.00 0.02 0.00 47 1002.0
20260504195603 72 270 7.0 13.9 0.00 0.02 0.00 45 1002.1
20260504195102 72 284 5.2 11.3 0.00 0.02 0.00 47 1002.2
20260504194603 72 264 7.8 13.0 0.00 0.02 0.00 46 1002.3
20260504194102 72 270 6.1 12.2 0.00 0.02 0.00 49 1002.4
20260504193603 71 277 7.8 15.6 0.00 0.02 0.00 48 1002.4
20260504193103 71 280 5.2 13.9 0.00 0.02 0.00 48 1002.6
20260504192603 71 259 8.7 20.0 0.00 0.02 0.00 48 1002.7
20260504191103 71 278 5.2 15.6 0.00 0.02 0.00 52 1002.9
20260504190602 70 281 5.2 12.2 0.00 0.02 0.00 51 1003.0
20260504185603 70 276 7.0 13.9 0.00 0.02 0.00 53 1003.1
20260504185103 70 254 6.1 19.1 0.00 0.02 0.00 54 1003.2
20260504184602 70 252 7.8 18.2 0.00 0.02 0.00 51 1003.2
20260504184102 70 284 7.0 15.6 0.00 0.02 0.00 56 1003.3
20260504183602 70 276 8.7 17.4 0.00 0.02 0.00 53 1003.4
20260504183102 69 286 8.7 18.2 0.00 0.02 0.00 52 1003.3
20260504182602 70 268 4.3 17.4 0.00 0.02 0.00 55 1003.5
20260504182103 69 255 6.1 12.2 0.00 0.02 0.00 55 1003.5
20260504181603 69 278 9.6 15.6 0.00 0.02 0.00 55 1003.6
20260504181103 68 282 7.0 19.1 0.00 0.02 0.00 56 1003.5
20260504180103 68 270 7.8 14.8 0.00 0.02 0.00 55 1003.7
20260504175604 68 274 6.1 13.9 0.00 0.02 0.00 57 1003.8
20260504174603 66 270 7.0 17.4 0.00 0.02 0.00 56 1003.9
20260504174103 66 285 9.6 17.4 0.00 0.02 0.00 59 1004.0
20260504173602 66 281 7.8 17.4 0.00 0.02 0.00 57 1004.2
20260504173102 66 281 7.8 13.9 0.00 0.02 0.00 57 1004.1
20260504172602 66 254 5.2 17.4 0.00 0.02 0.00 58 1004.1
20260504172102 66 287 10.4 20.0 0.00 0.02 0.00 57 1004.2
20260504171103 66 282 5.2 13.0 0.00 0.02 0.00 58 1004.2
20260504170603 66 250 5.2 13.0 0.00 0.02 0.00 57 1004.3
20260504151103 63 278 7.8 14.8 0.00 0.02 0.00 60 1005.1
20260504150603 62 278 10.4 17.4 0.00 0.02 0.00 57 1005.1
20260504150103 63 291 7.8 17.4 0.00 0.02 0.00 57 1005.1
20260504140603 61 278 6.1 12.2 0.00 0.02 0.00 58 1005.1
20260504130603 58 278 6.1 17.4 0.00 0.02 0.00 61 1005.5
20260504130103 58 265 7.8 14.8 0.00 0.02 0.00 60 1005.6
20260504081102 49 248 4.3 12.2 0.00 0.03 0.00 72 1006.3
20260504080603 49 264 4.3 10.4 0.00 0.03 0.00 72 1006.4
20260504050603 52 265 5.2 10.4 0.00 0.03 0.00 65 1007.9
20260504050103 53 269 3.5 13.9 0.00 0.03 0.00 63 1007.8
20260504045603 53 259 5.2 10.4 0.00 0.03 0.00 62 1007.9
20260504044602 53 270 5.2 13.9 0.00 0.03 0.00 60 1007.9
20260504044103 54 261 5.2 11.3 0.00 0.03 0.00 60 1007.9
20260504043603 54 270 4.3 20.0 0.00 0.03 0.00 59 1007.9
20260504043103 54 262 4.3 13.0 0.00 0.03 0.00 59 1007.9
20260504042603 54 277 4.3 11.3 0.00 0.03 0.00 59 1007.9
20260504042103 54 285 5.2 11.3 0.00 0.03 0.00 59 1007.9